Change the Weather History Date:

Saturday, January 31, 2015

  Actual Average Record
Temperature  
Mean Temperature 36 °F 29 °F  
Max Temperature 39 °F 40 °F 57 °F (2003)
Min Temperature 32 °F 17 °F -7 °F (2002)
Degree Days  
Heating Degree Days 29 36  
Month to date heating degree days 1053 1197  
Since 1 July heating degree days 3310 3805  
Cooling Degree Days 0 0  
Month to date cooling degree days 0 0  
Year to date cooling degree days 0 0  
Moisture  
Dew Point 35 °F    
Average Humidity 93    
Maximum Humidity 100    
Minimum Humidity 85    
Precipitation  
Precipitation 0.17 in 0.02 in 0.52 in (2014)
Month to date precipitation 0.20 0.65  
Year to date precipitation 0.20 0.65  
Sea Level Pressure  
Sea Level Pressure 29.92 in    
Wind  
Wind Speed 3 mph (NW)    
Max Wind Speed 8 mph    
Max Gust Speed 24 mph    
Visibility 8 miles    
Events Rain    
T = Trace of Precipitation, MM = Missing Value Source: NWS Daily Summary

Daily Weather History Graph

Daily Weather History Graph

Search for Another Location

Airport or City:

Trip Planner

Search our weather history database for the weather conditions in past years. The results will help you decide how hot, cold, wet, or windy it might be!

Date:

Astronomy

Jan. 31, 2015 Rise Set
Actual Time 7:18 AM MST 5:32 PM MST
Civil Twilight 6:50 AM MST 6:00 PM MST
Nautical Twilight 6:18 AM MST 6:32 PM MST
Astronomical Twilight 5:47 AM MST 7:03 PM MST
Moon 3:00 PM MST 4:41 AM MST
Length of Visible Light 11h 10m
Length of Day
10h 14m
Waxing Gibbous, 91% of the Moon is Illuminated
Jan 31
Waxing Gibbous
Feb 3
Full
Feb 11
Last Quarter
Feb 18
New
Feb 25
First Quarter

Hourly Weather History & Observations

Time (MST) Temp. Windchill Dew Point Humidity Pressure Visibility Wind Dir Wind Speed Gust Speed Precip Events Conditions
12:01 AM 37.9 °F - 37.0 °F 97% 29.95 in 9.0 mi Calm Calm - N/A   Overcast
12:28 AM 37.9 °F - 37.0 °F 97% 29.95 in 10.0 mi Calm Calm - N/A   Overcast
12:41 AM 37.9 °F - 37.0 °F 97% 29.94 in 10.0 mi Calm Calm - N/A   Overcast
12:49 AM 37.4 °F - 35.6 °F 93% 29.94 in 9.0 mi Calm Calm - N/A   Overcast
12:53 AM 37.9 °F - 36.0 °F 93% 29.88 in 9.0 mi Calm Calm - N/A   Overcast
1:14 AM 37.9 °F - 37.0 °F 97% 29.94 in 8.0 mi Calm Calm - N/A   Overcast
1:27 AM 37.9 °F - 37.0 °F 97% 29.94 in 8.0 mi Calm Calm - N/A   Overcast
1:53 AM 37.9 °F - 37.0 °F 97% 29.87 in 8.0 mi Calm Calm - N/A   Overcast
2:53 AM 37.9 °F 35.5 °F 36.0 °F 93% 29.85 in 9.0 mi NNW 3.5 mph - N/A   Overcast
3:53 AM 37.0 °F 33.3 °F 36.0 °F 96% 29.84 in 4.0 mi WNW 4.6 mph - N/A   Overcast
4:43 AM 36.0 °F 33.3 °F 36.0 °F 100% 29.90 in 5.0 mi WNW 3.5 mph - N/A   Overcast
4:53 AM 36.0 °F 33.3 °F 36.0 °F 100% 29.84 in 5.0 mi WNW 3.5 mph - N/A   Overcast
5:27 AM 36.0 °F 33.3 °F 36.0 °F 100% 29.90 in 5.0 mi NNW 3.5 mph - 0.00 in Rain Light Rain
5:53 AM 36.0 °F 33.3 °F 36.0 °F 100% 29.85 in 5.0 mi NNW 3.5 mph - 0.00 in   Overcast
6:40 AM 37.0 °F 34.5 °F 36.0 °F 96% 29.91 in 2.5 mi North 3.5 mph - 0.00 in Rain Light Rain
6:53 AM 36.0 °F 33.3 °F 36.0 °F 100% 29.86 in 3.0 mi North 3.5 mph - 0.00 in Rain Light Rain
7:27 AM 36.0 °F 30.3 °F 35.1 °F 97% 29.91 in 9.0 mi NNW 6.9 mph - 0.01 in Rain Light Rain
7:37 AM 36.0 °F 32.1 °F 35.1 °F 97% 29.92 in 7.0 mi North 4.6 mph - 0.01 in Rain Light Rain
7:44 AM 36.0 °F 32.1 °F 35.1 °F 97% 29.92 in 6.0 mi North 4.6 mph - 0.02 in Rain Light Rain
7:53 AM 36.0 °F 32.1 °F 35.1 °F 97% 29.87 in 6.0 mi North 4.6 mph - 0.02 in Rain Light Rain
8:13 AM 35.1 °F 30.1 °F 34.0 °F 96% 29.92 in 6.0 mi NW 5.8 mph - 0.02 in Rain Light Rain
8:42 AM 35.1 °F - 34.0 °F 96% 29.93 in 8.0 mi Calm Calm - 0.03 in Rain Light Rain
8:53 AM 35.1 °F - 34.0 °F 96% 29.89 in 10.0 mi Calm Calm - 0.03 in Rain Light Rain
9:16 AM 35.1 °F - 34.0 °F 96% 29.93 in 9.0 mi Calm Calm - 0.01 in Rain Light Rain
9:50 AM 35.6 °F - 33.8 °F 93% 29.94 in 9.0 mi Calm Calm - 0.02 in Rain Light Rain
9:53 AM 35.1 °F - 33.1 °F 92% 29.90 in 9.0 mi Calm Calm - 0.02 in Rain Light Rain
10:11 AM 36.0 °F - 34.0 °F 93% 29.94 in 10.0 mi Calm Calm - 0.01 in Rain Light Rain
10:26 AM 35.1 °F 32.2 °F 34.0 °F 96% 29.95 in 10.0 mi SSE 3.5 mph - 0.01 in Rain Light Rain
10:53 AM 36.0 °F - 34.0 °F 93% 29.91 in 8.0 mi Calm Calm - 0.02 in Rain Light Rain
11:36 AM 37.0 °F - 35.1 °F 93% 29.94 in 2.5 mi Calm Calm - 0.01 in Rain Light Rain
11:40 AM 37.0 °F - 35.1 °F 93% 29.94 in 3.0 mi Calm Calm - 0.01 in Rain Light Rain
11:50 AM 35.6 °F - 35.6 °F 100% 29.94 in 3.0 mi Calm Calm - 0.02 in Rain Light Rain
11:53 AM 36.0 °F - 34.0 °F 93% 29.90 in 3.0 mi Calm Calm - 0.02 in Rain Light Rain
12:14 PM 37.0 °F - 35.1 °F 93% 29.93 in 5.0 mi Calm Calm - 0.01 in Rain Light Rain
12:35 PM 37.0 °F 34.5 °F 35.1 °F 93% 29.93 in 7.0 mi North 3.5 mph - 0.02 in Rain Light Rain
12:53 PM 37.0 °F - 34.0 °F 89% 29.88 in 10.0 mi Calm Calm - 0.03 in Rain Light Rain
1:08 PM 37.0 °F - 34.0 °F 89% 29.92 in 10.0 mi Calm Calm - 0.00 in Rain Light Rain
1:12 PM 37.0 °F - 34.0 °F 89% 29.92 in 10.0 mi Calm Calm - 0.00 in Rain Light Rain
1:30 PM 37.0 °F - 35.1 °F 93% 29.92 in 10.0 mi Calm Calm - 0.01 in Rain Light Rain
1:53 PM 37.0 °F 34.5 °F 34.0 °F 89% 29.87 in 10.0 mi ESE 3.5 mph - 0.01 in Rain Light Rain
2:28 PM 37.0 °F 33.3 °F 34.0 °F 89% 29.92 in 10.0 mi SSE 4.6 mph - 0.01 in Rain Light Rain
2:38 PM 37.0 °F 34.5 °F 35.1 °F 93% 29.92 in 10.0 mi SSE 3.5 mph - 0.01 in Rain Light Rain
2:53 PM 37.0 °F 33.3 °F 35.1 °F 93% 29.88 in 8.0 mi SSW 4.6 mph - 0.02 in Rain Light Rain
3:40 PM 37.9 °F - 35.1 °F 89% 29.93 in 10.0 mi Calm Calm - 0.00 in   Overcast
3:53 PM 37.9 °F - 35.1 °F 89% 29.89 in 10.0 mi Calm Calm - 0.00 in   Overcast
4:01 PM 37.9 °F - 35.1 °F 89% 29.94 in 10.0 mi Calm Calm - N/A   Overcast
4:14 PM 37.9 °F - 35.1 °F 89% 29.94 in 10.0 mi Calm Calm - N/A   Overcast
4:40 PM 37.9 °F - 35.1 °F 89% 29.96 in 10.0 mi Calm Calm - N/A   Overcast
4:53 PM 37.9 °F 35.5 °F 35.1 °F 89% 29.92 in 10.0 mi South 3.5 mph - N/A   Overcast
5:53 PM 37.9 °F 33.5 °F 35.1 °F 89% 29.93 in 10.0 mi SSE 5.8 mph - N/A   Overcast
6:11 PM 37.9 °F 35.5 °F 34.0 °F 86% 29.97 in 10.0 mi SSE 3.5 mph - N/A   Overcast
6:21 PM 37.9 °F - 35.1 °F 89% 29.97 in 10.0 mi Calm Calm - N/A   Overcast
6:53 PM 37.9 °F 35.5 °F 35.1 °F 89% 29.95 in 10.0 mi SE 3.5 mph - N/A   Overcast
7:53 PM 37.9 °F 34.4 °F 35.1 °F 89% 29.98 in 10.0 mi NW 4.6 mph - N/A   Overcast
8:53 PM 37.9 °F 35.5 °F 35.1 °F 89% 30.00 in 10.0 mi WNW 3.5 mph - N/A   Overcast
9:53 PM 37.0 °F 33.3 °F 34.0 °F 89% 30.01 in 10.0 mi West 4.6 mph - N/A   Mostly Cloudy
10:53 PM 33.1 °F - 32.0 °F 96% 30.04 in 10.0 mi Calm Calm - N/A   Partly Cloudy
11:32 PM 32.0 °F 28.7 °F 32.0 °F 100% 30.07 in 7.0 mi SE 3.5 mph - N/A   Mostly Cloudy
11:53 PM 33.1 °F 30.0 °F 32.0 °F 96% 30.05 in 5.0 mi ESE 3.5 mph - N/A   Overcast